This demonstration page uses our WeatherBlox Daily Observations layout. Learn more.

Left ArrowRight Arrow

Hourly Observations for November 22, 2018

Temp ( °F °C ) Dew Point ( °F °C ) Humidity (%) Winds ( mph kmh ) Pressure ( in mb ) Visibility ( mi km ) Precip ( " mm )
12:52 am 00:52 Clear 35 1.7 31 -0.6 85 85 SE 7 11 30.15 1021 10 16 0.00 0.00
1:52 am 01:52 Clear 34 1.1 29 -1.7 82 82 SSE 9 15 30.14 1021 10 16 0.00 0.00
2:52 am 02:52 Clear 34 1.1 30 -1.1 85 85 SSE 8 13 30.14 1021 10 16 0.00 0.00
3:52 am 03:52 Clear 32 0 28 -2.2 85 85 SSE 9 15 30.14 1021 10 16 0.00 0.00
4:52 am 04:52 Clear 32 0 28 -2.2 85 85 SSE 9 15 30.14 1021 10 16 0.00 0.00
5:52 am 05:52 Clear 31 -0.6 27 -2.8 85 85 SSE 9 15 30.13 1020 10 16 0.00 0.00
6:52 am 06:52 Clear 31 -0.6 28 -2.2 89 89 SSE 9 15 30.14 1021 10 16 0.00 0.00
7:52 am 07:52 Sunny 32 0 29 -1.7 88 88 SSE 8 13 30.14 1021 10 16 0.00 0.00
8:52 am 08:52 Sunny 38 3.3 33 0.6 83 83 SSE 13 20 30.13 1020 10 16 0.00 0.00
9:52 am 09:52 Sunny 42 5.6 34 1.1 73 73 SSE 10 17 30.11 1020 10 16 0.00 0.00
10:52 am 10:52 Sunny 46 7.8 35 1.7 66 66 S 13 20 30.08 1019 10 16 0.00 0.00
11:52 am 11:52 Sunny 49 9.4 35 1.7 59 59 SSE 15 24 30.04 1017 10 16 0.00 0.00
12:52 pm 12:52 Sunny 52 11.1 36 2.2 55 55 S 12 19 30.00 1016 10 16 0.00 0.00
1:52 pm 13:52 Sunny 55 12.8 37 2.8 51 51 SSE 16 26 29.97 1015 10 16 0.00 0.00
2:52 pm 14:52 Mostly Sunny 57 13.9 37 2.8 47 47 SSE 18 30 29.94 1014 10 16 0.00 0.00
3:52 pm 15:52 Mostly Sunny 57 13.9 39 3.9 51 51 SSE 15 24 29.93 1014 10 16 0.00 0.00
4:52 pm 16:52 Partly Cloudy 55 12.8 39 3.9 55 55 S 15 24 29.92 1013 10 16 0.00 0.00
5:52 pm 17:52 Mostly Cloudy 49 9.4 38 3.3 66 66 SSE 12 19 29.91 1013 10 16 0.00 0.00
6:52 pm 18:52 Mostly Cloudy 46 7.8 37 2.8 71 71 SSE 10 17 29.90 1013 10 16 0.00 0.00
7:52 pm 19:52 Mostly Cloudy 52 11.1 38 3.3 59 59 S 18 30 29.87 1012 10 16 0.00 0.00
8:52 pm 20:52 Mostly Cloudy 51 10.6 38 3.3 61 61 SSE 20 31 29.85 1011 10 16 0.00 0.00
9:52 pm 21:52 Mostly Cloudy 50 10 37 2.8 61 61 S 18 30 29.84 1011 10 16 0.00 0.00
10:52 pm 22:52 Partly Cloudy 48 8.9 36 2.2 63 63 S 18 30 29.82 1010 10 16 0.00 0.00
11:52 pm 23:52 Mostly Cloudy 48 8.9 35 1.7 61 61 S 18 30 29.80 1009 10 16 0.00 0.00

Powered by AerisWeather